Theta_e
342 339 336 336 336 337 338 338 338 338 338 337 337 338 337 335 334 335 337 337 336 336 336 333 336 339 340 340 340 338 336 336 338 337 338 335 337 336 339 341 340 339 337
341 338 336 336 336 337 337 337 337 337 338 339 338 338 338 338 335 335 337 339 339 339 336 334 336 338 339 339 338 338 336 336 337 337 337 335 335 337 341 343 339 338 338
345 341 340 338 337 336 335 335 336 336 337 339 340 339 339 339 338 336 337 339 340 341 340 337 336 336 337 338 338 337 335 337 337 338 336 336 334 337 341 340 339 336 337
343 343 343 342 341 341 340 338 337 336 336 337 340 341 340 340 339 338 337 338 339 342 342 341 339 337 337 338 335 333 335 336 335 338 339 339 336 334 340 341 337 336 336
341 341 342 342 342 341 341 341 341 340 339 336 336 338 342 342 341 339 339 339 339 340 341 342 342 340 338 338 335 332 334 336 335 337 339 339 338 335 338 340 335 335 336
338 339 338 338 339 341 341 340 340 340 340 340 338 337 338 341 342 341 340 339 339 340 340 341 342 340 340 337 336 333 334 336 335 335 336 338 333 338 334 338 337 335 335
337 338 338 336 336 337 340 339 339 339 340 340 340 339 338 337 340 341 340 340 340 340 339 340 340 340 336 337 335 332 333 335 336 335 337 338 332 331 334 334 336 335 338
334 333 334 334 329 329 331 333 334 336 339 340 339 339 339 339 338 338 340 340 339 338 338 338 338 339 336 336 337 334 333 334 336 335 336 338 337 334 336 334 334 335 336
321 323 325 328 323 322 326 326 328 331 330 334 338 339 339 339 339 339 338 337 336 337 335 335 336 337 336 334 336 336 334 334 334 335 337 338 337 336 336 335 333 334 335
313 314 315 319 320 319 322 322 323 324 326 325 325 331 334 337 339 339 340 340 339 336 335 335 334 336 335 335 336 336 335 334 334 334 335 336 337 338 337 335 333 335 335
312 311 311 312 315 316 317 318 319 319 321 321 320 319 322 329 330 333 336 338 338 338 337 336 339 336 336 336 336 338 337 336 334 334 334 335 339 337 337 336 333 334 336
311 310 309 309 309 312 311 312 313 313 314 313 317 316 315 318 321 323 327 331 334 337 337 338 337 338 338 337 335 336 338 336 334 334 333 337 337 337 337 336 333 333 333
310 309 308 308 308 309 309 308 309 310 311 310 313 313 312 311 312 313 316 319 325 329 331 333 336 337 337 337 336 335 335 337 337 335 334 335 338 336 333 335 334 332 333
309 308 307 307 307 307 307 307 308 308 308 308 311 311 310 310 310 310 310 312 317 321 320 328 335 334 335 336 337 337 336 335 336 336 335 334 337 336 336 335 335 332 332
308 307 306 306 306 306 305 306 306 307 306 307 309 308 307 309 308 308 307 308 311 313 315 318 321 328 328 330 330 334 336 334 334 336 336 335 335 336 334 335 334 332 331
307 306 306 306 305 305 305 305 305 306 305 307 308 306 305 308 307 306 305 305 306 308 309 311 313 318 323 330 333 329 332 332 331 332 331 331 332 335 335 334 334 333 331
306 305 305 305 303 303 303 304 304 304 304 305 304 304 305 305 304 304 304 304 304 305 306 307 309 311 315 318 324 330 328 328 330 333 333 332 330 328 328 331 332 333 333
305 304 303 303 302 302 302 302 302 302 302 302 302 302 303 303 304 304 303 303 303 303 303 305 306 308 310 312 315 322 328 327 325 332 330 330 328 327 331 328 324 329 330
304 303 303 302 301 301 301 300 300 300 299 299 299 301 300 299 299 300 300 300 301 301 302 303 305 307 307 309 312 315 321 326 325 321 326 330 330 331 331 329 326 325 327
304 303 302 301 301 300 300 299 299 299 298 298 299 298 296 296 295 295 295 295 296 297 298 298 299 301 305 308 310 311 313 317 322 323 321 320 325 328 325 325 325 324 327
303 302 301 301 300 299 299 298 298 297 296 296 295 294 294 293 292 291 292 292 293 294 295 295 296 298 300 304 308 312 314 316 319 323 324 324 322 319 322 325 328 324 331
303 302 301 300 299 298 298 297 296 295 295 294 292 292 291 290 289 290 290 291 292 293 294 294 295 296 298 301 305 309 313 314 317 321 324 324 323 323 322 321 329 332 332
302 301 301 300 299 298 296 296 295 294 293 291 290 289 289 288 288 289 289 290 290 291 291 292 293 295 296 299 301 306 313 316 315 319 324 324 325 325 327 327 327 328 330
302 301 301 300 298 296 296 294 293 292 291 290 289 288 287 287 288 288 288 289 288 289 290 290 291 293 295 297 298 302 304 306 315 316 320 320 324 326 327 328 329 330 332
301 301 300 299 297 295 295 293 292 290 289 288 287 287 287 287 287 287 287 287 288 288 289 289 290 291 293 295 297 299 301 304 307 313 315 315 320 323 326 328 328 330 330
301 300 299 298 294 294 294 292 291 289 288 287 286 287 286 286 286 286 286 286 286 287 288 288 289 290 292 293 295 297 299 302 308 309 313 312 313 318 319 321 327 328 329
Wind_Speed
2 13 15 18 17 17 14 11 10 8 7 6 6 6 4 3 2 3 3 3 2 3 3 2 1 1 2 2 2 3 3 2 4 6 9 11 15 16 18 16 14 17 18
13 15 16 17 15 14 13 11 11 9 6 4 4 5 4 4 2 0 0 0 0 1 1 1 1 1 3 3 3 5 5 2 1 4 8 11 15 17 17 15 11 15 17
20 18 19 17 15 13 12 11 10 9 8 6 4 3 4 5 5 4 3 3 3 3 4 4 5 5 4 5 6 7 5 3 2 4 6 10 14 16 15 11 13 16 15
22 21 19 16 15 14 13 11 10 9 8 7 5 4 4 5 6 6 6 5 6 6 7 7 8 8 8 7 7 8 7 3 4 4 6 8 11 12 11 11 15 15 15
25 24 22 21 18 14 13 12 11 9 8 7 6 5 5 5 6 8 8 8 8 9 8 9 9 10 10 9 10 9 7 5 6 6 6 4 10 9 12 15 13 14 14
25 24 25 25 22 18 15 13 11 9 8 8 7 7 6 5 6 6 9 11 10 11 11 11 11 12 13 11 12 12 10 6 7 7 10 11 9 12 12 14 14 14 14
23 19 20 22 22 22 19 17 15 14 11 9 7 6 6 6 6 7 8 11 12 13 14 14 14 14 15 15 14 14 12 10 10 9 12 14 10 16 17 17 15 16 15
20 17 16 15 19 19 20 20 21 19 17 13 11 9 9 8 7 8 10 11 12 14 15 16 16 16 17 17 17 17 15 12 12 12 13 13 18 20 19 20 17 18 18
20 18 17 16 17 17 16 19 19 18 19 15 14 13 11 11 9 9 11 13 15 17 18 19 19 20 20 19 18 18 18 15 15 15 13 10 16 26 22 23 21 21 21
22 21 20 18 15 17 14 17 17 14 18 18 17 14 13 12 12 12 10 11 15 19 20 21 22 21 20 21 21 20 19 19 19 18 17 13 15 20 20 21 23 23 22
22 23 21 20 18 16 15 14 13 15 13 15 19 19 18 15 15 15 13 12 13 17 22 22 21 23 22 24 24 23 20 21 22 21 21 17 15 25 22 21 22 23 23
21 21 21 20 21 17 17 15 14 15 15 18 19 20 20 17 15 14 12 12 13 14 16 20 23 26 25 26 27 26 25 25 25 25 23 17 19 18 23 21 22 23 22
17 19 20 20 19 18 19 18 17 17 18 18 19 21 21 20 19 17 16 15 15 15 19 21 19 21 25 28 27 28 29 27 28 30 25 21 22 20 22 17 19 21 22
17 16 16 18 19 18 19 20 19 20 22 21 19 22 24 24 23 22 21 20 18 17 19 19 19 20 19 22 24 27 28 26 26 30 27 24 23 20 20 18 18 18 21
17 16 17 17 20 19 20 20 20 21 23 21 19 21 25 22 24 25 24 22 22 21 21 21 19 21 22 21 19 26 28 27 22 20 25 19 21 21 21 17 16 18 21
15 15 14 16 19 19 22 21 21 20 23 21 19 22 23 19 24 27 27 26 24 23 25 26 24 22 20 23 22 19 22 24 36 19 13 32 25 18 21 18 15 17 25
14 12 12 14 18 18 19 18 18 18 19 19 19 21 20 20 25 27 28 27 26 26 27 28 28 26 24 21 24 22 20 26 29 29 31 26 34 28 29 21 18 23 25
11 12 13 14 19 19 18 17 18 18 17 19 20 19 22 24 21 21 21 25 26 27 27 26 27 27 27 26 24 23 27 24 27 28 29 28 24 34 34 28 34 30 27
11 12 14 15 19 18 19 21 21 22 24 25 25 23 21 23 21 20 19 20 21 24 23 23 25 24 26 25 26 22 21 29 26 24 28 29 32 35 34 33 28 33 35
11 12 14 16 18 18 21 22 23 25 27 25 22 22 26 24 26 27 24 24 23 23 25 27 29 29 24 25 25 27 28 26 29 27 21 22 30 35 36 36 35 38 34
10 12 14 16 17 20 23 23 24 26 24 24 23 26 25 30 32 32 26 25 22 21 23 26 28 25 26 23 23 20 23 24 25 29 27 26 28 31 34 36 35 41 36
10 10 12 14 14 17 18 18 19 18 17 18 24 26 30 32 29 26 28 25 22 21 19 20 21 23 21 20 11 17 5 8 18 26 32 34 33 31 31 36 39 35 37
9 8 10 12 11 15 17 17 19 19 20 21 24 24 28 25 27 25 25 23 24 22 21 20 19 20 21 19 16 7 4 3 5 9 24 29 33 32 27 29 32 40 41
10 8 8 9 8 12 15 16 16 17 16 20 22 25 26 26 24 24 24 24 25 23 23 22 21 21 21 18 18 17 17 13 3 4 4 11 17 24 26 27 30 35 35
12 10 8 8 9 11 13 14 15 17 17 19 22 22 23 24 23 24 25 26 26 25 23 23 23 21 20 21 19 16 18 18 18 4 7 8 10 9 14 21 28 32 35
14 11 8 9 11 11 11 12 15 16 17 20 25 23 25 24 24 25 28 27 26 26 24 26 25 23 21 21 19 19 17 11 6 5 2 5 10 11 14 17 13 22 25
Wind_Direction
97 94 92 84 78 76 75 75 70 60 49 34 28 19 21 42 76 77 88 98 112 137 146 130 77 7 345 341 304 326 335 11 93 124 132 129 127 127 123 123 134 134 135
111 88 86 81 77 75 73 68 64 60 53 38 16 5 349 340 314 162 211 179 178 233 185 181 247 306 324 323 310 313 321 350 127 155 139 134 135 136 135 130 148 144 142
95 86 80 77 74 70 66 61 57 52 47 37 17 351 327 315 302 283 257 252 263 272 268 260 260 272 278 294 299 298 305 318 258 170 151 144 148 151 151 159 164 152 151
86 77 74 78 73 66 60 53 45 39 32 29 18 350 322 311 296 281 269 261 257 270 273 279 278 274 277 281 284 290 295 276 254 190 173 144 161 169 165 158 160 160 159
77 73 70 66 62 63 56 50 44 36 25 14 7 354 335 320 309 295 288 275 267 264 269 273 282 279 273 278 282 280 275 269 254 201 201 222 174 187 181 163 166 166 168
76 69 65 61 55 50 48 44 34 32 26 13 3 350 340 315 297 288 281 277 276 271 266 269 275 281 274 271 276 276 268 243 240 225 222 214 199 190 203 182 177 170 175
77 71 68 65 58 46 42 42 38 35 32 22 10 351 338 328 309 285 273 277 277 275 271 265 266 269 271 270 267 269 265 253 232 227 224 235 247 200 192 203 181 179 179
73 70 70 68 66 54 48 46 40 35 28 24 20 7 350 338 323 305 284 274 270 270 268 265 263 265 264 265 268 268 263 253 241 235 228 238 253 197 192 210 190 188 189
65 62 59 68 66 59 57 52 41 33 26 18 19 16 5 360 350 330 309 291 277 269 262 256 256 257 260 259 264 269 269 262 253 243 230 238 228 222 192 209 199 194 194
53 51 50 58 65 56 59 59 50 33 33 19 22 19 17 9 1 356 330 305 287 279 273 270 265 264 263 263 263 262 263 264 256 251 242 234 210 212 207 205 203 199 196
49 45 45 48 52 54 51 51 48 36 35 20 17 15 19 21 12 359 353 346 308 290 278 269 271 270 269 269 269 268 267 264 263 259 255 233 216 203 205 210 209 199 198
50 42 39 41 44 46 42 38 39 33 22 19 22 4 6 9 7 3 0 343 337 334 311 291 275 274 270 268 269 269 264 263 261 257 252 249 218 222 199 211 211 202 201
55 45 34 35 38 39 32 28 31 25 14 17 22 -0 358 357 356 352 349 346 346 346 336 328 308 287 276 273 269 268 267 266 264 260 253 244 240 230 205 217 225 211 206
58 47 36 32 34 37 29 29 29 21 11 13 16 359 356 354 349 348 347 343 337 337 340 344 317 312 300 283 273 266 265 270 277 275 262 248 239 224 215 214 231 228 215
62 47 38 26 30 34 29 31 27 20 13 12 14 355 357 352 343 343 342 338 334 330 325 323 329 326 317 305 302 274 256 247 252 268 268 256 246 239 233 212 236 243 232
62 49 41 28 25 33 31 29 25 18 12 17 10 351 357 345 338 340 338 336 333 329 318 318 318 315 320 313 300 299 264 244 235 247 246 227 263 242 225 209 232 250 246
69 55 43 30 27 38 33 28 24 16 15 12 5 358 355 347 337 334 332 334 334 328 319 314 312 313 307 312 311 293 283 254 252 247 242 227 216 241 231 213 211 234 244
72 57 45 33 29 36 28 22 21 18 10 3 359 358 352 351 351 347 340 332 330 330 327 323 320 322 318 310 307 299 283 282 272 260 248 240 224 222 228 216 218 222 243
71 57 44 30 27 28 17 19 15 12 9 6 6 4 1 360 356 352 350 343 333 330 335 334 328 326 319 316 312 303 296 277 277 267 257 251 243 239 237 219 242 233 220
72 50 41 31 24 18 16 15 9 4 5 9 8 356 354 347 343 343 339 332 334 334 324 321 321 317 323 313 309 301 295 285 280 265 258 257 246 238 241 248 249 232 225
67 47 39 31 21 13 20 13 4 3 4 0 351 348 342 338 336 339 341 337 337 328 318 318 317 317 318 326 313 308 294 283 276 264 254 259 259 253 247 246 237 231 238
78 52 40 35 24 16 18 13 9 6 359 354 353 347 342 342 344 345 341 338 335 330 326 314 308 308 303 309 315 307 294 299 265 254 253 256 259 259 250 243 231 236 240
88 63 46 36 33 19 12 8 8 7 7 4 360 356 351 348 345 346 341 337 333 329 324 317 309 299 297 294 300 288 311 260 348 261 243 246 256 254 243 247 241 241 240
109 82 51 39 36 22 17 15 21 19 8 359 357 349 349 351 348 345 341 336 330 324 317 312 303 298 293 290 293 282 286 302 306 320 312 316 265 256 254 248 245 243 242
118 92 63 50 42 24 25 20 16 15 10 1 357 353 352 347 348 348 344 336 330 325 314 312 310 301 296 280 273 281 288 294 293 268 279 302 295 274 280 271 254 243 244
112 95 74 64 51 25 28 22 17 16 10 8 7 355 353 348 351 351 349 342 339 333 327 323 313 303 291 286 283 270 266 273 306 321 320 312 306 301 309 312 291 254 250